TimeCST,TemperatureF,Dew PointF,Humidity,Sea Level PressureIn,VisibilityMPH,Wind Direction,Wind SpeedMPH,Gust SpeedMPH,PrecipitationIn,Events,Conditions,WindDirDegrees,DateUTC
12:53 AM,59.0,53.1,81,29.54,10.0,South,13.8,21.9,N/A,,Overcast,170,2012-11-11 06:53:00
1:53 AM,55.9,53.1,90,29.57,10.0,Calm,Calm,-,0.01,,Overcast,0,2012-11-11 07:53:00
2:53 AM,57.0,52.0,83,29.54,10.0,South,9.2,-,0.00,Rain,Light Rain,180,2012-11-11 08:53:00
3:53 AM,60.1,50.0,69,29.56,10.0,SSW,10.4,25.3,0.00,,Mostly Cloudy,200,2012-11-11 09:53:00
4:36 AM,59.0,50.0,72,29.55,10.0,SSW,6.9,19.6,N/A,,Overcast,210,2012-11-11 10:36:00
4:53 AM,59.0,50.0,72,29.57,10.0,Variable,5.8,-,N/A,,Overcast,0,2012-11-11 10:53:00
5:53 AM,59.0,51.1,75,29.57,10.0,Variable,6.9,17.3,N/A,,Overcast,0,2012-11-11 11:53:00
6:53 AM,57.0,51.1,81,29.58,10.0,SW,8.1,-,N/A,,Overcast,230,2012-11-11 12:53:00
7:01 AM,53.6,48.2,82,29.58,9.0,West,9.2,17.3,N/A,,Overcast,260,2012-11-11 13:01:00
7:09 AM,51.8,48.2,88,29.58,8.0,Variable,4.6,17.3,N/A,,Overcast,0,2012-11-11 13:09:00
7:34 AM,48.2,46.4,93,29.60,2.5,West,9.2,16.1,0.02,Rain,Light Rain,260,2012-11-11 13:34:00
7:53 AM,46.9,44.1,90,29.65,3.0,WSW,9.2,19.6,0.03,Rain,Light Rain,250,2012-11-11 13:53:00
8:03 AM,44.6,42.8,93,29.63,3.0,Variable,6.9,23.0,0.00,Rain,Light Rain,0,2012-11-11 14:03:00
8:31 AM,44.6,42.8,93,29.63,8.0,Variable,6.9,-,0.01,,Overcast,0,2012-11-11 14:31:00
8:42 AM,44.6,41.0,87,29.60,5.0,WSW,4.6,-,0.01,,Overcast,250,2012-11-11 14:42:00
8:53 AM,43.0,41.0,93,29.66,8.0,WSW,8.1,-,0.01,,Overcast,250,2012-11-11 14:53:00
10:11 AM,39.2,37.4,93,29.68,10.0,West,5.8,-,N/A,,Overcast,260,2012-11-11 16:11:00
10:48 AM,37.4,35.6,93,29.67,10.0,West,5.8,-,N/A,,Overcast,260,2012-11-11 16:48:00
10:53 AM,37.9,35.1,89,29.69,10.0,WSW,5.8,-,N/A,,Overcast,250,2012-11-11 16:53:00
11:03 AM,37.4,35.6,93,29.67,10.0,Variable,5.8,-,0.00,Rain,Light Rain,0,2012-11-11 17:03:00
11:22 AM,37.4,35.6,93,29.66,6.0,WSW,3.5,-,0.01,Rain,Light Rain,250,2012-11-11 17:22:00
11:37 AM,37.4,35.6,93,29.67,7.0,Variable,3.5,-,0.02,Rain,Light Rain,0,2012-11-11 17:37:00
11:53 AM,37.0,35.1,93,29.69,5.0,Variable,4.6,-,0.03,Rain,Light Rain,0,2012-11-11 17:53:00
12:53 PM,36.0,34.0,93,29.68,10.0,Variable,4.6,-,0.01,,Overcast,0,2012-11-11 18:53:00
1:53 PM,34.0,32.0,92,29.69,10.0,Variable,4.6,-,N/A,,Overcast,0,2012-11-11 19:53:00
2:48 PM,33.8,30.2,87,29.65,7.0,West,6.9,-,0.00,Rain,Light Rain,280,2012-11-11 20:48:00
2:53 PM,33.1,30.9,92,29.68,8.0,Variable,6.9,-,0.00,,Overcast,0,2012-11-11 20:53:00
3:35 PM,33.8,30.2,87,29.69,10.0,Variable,5.8,-,0.00,,Overcast,0,2012-11-11 21:35:00
3:53 PM,32.0,30.0,92,29.70,10.0,Variable,6.9,-,0.00,,Overcast,0,2012-11-11 21:53:00
4:53 PM,30.9,28.0,89,29.73,10.0,Variable,6.9,-,N/A,,Overcast,0,2012-11-11 22:53:00
5:30 PM,30.2,26.6,86,29.71,10.0,WSW,4.6,-,N/A,,Overcast,240,2012-11-11 23:30:00
5:53 PM,30.9,27.0,85,29.76,10.0,West,8.1,-,N/A,,Overcast,270,2012-11-11 23:53:00
6:53 PM,28.9,23.0,78,29.80,10.0,West,8.1,-,N/A,,Overcast,270,2012-11-12 00:53:00
7:53 PM,28.0,21.0,75,29.80,10.0,WSW,6.9,-,N/A,,Overcast,240,2012-11-12 01:53:00
8:53 PM,27.0,19.0,72,29.83,10.0,West,8.1,-,N/A,,Overcast,260,2012-11-12 02:53:00
9:53 PM,25.0,17.1,72,29.86,10.0,Variable,5.8,-,N/A,,Overcast,0,2012-11-12 03:53:00
10:53 PM,24.1,16.0,71,29.87,10.0,Variable,4.6,-,N/A,,Overcast,0,2012-11-12 04:53:00
11:53 PM,23.0,14.0,68,29.88,10.0,WSW,6.9,17.3,N/A,,Overcast,250,2012-11-12 05:53:00